Tracking 18945 objects as of 21-Jan-2018
HD Live streaming from Space Station
objects crossing your sky now

PLEM COVER

Track PLEM COVER now!
10-day predictions


NORAD ID: 27611
Int'l Code: 2002-058G
Perigee: 525.1 km
Apogee: 574.5 km
Inclination: 64.5 °
Period: 95.5 minutes
Semi major axis: 6920 km
RCS: 3.6273 m2 (large)
Launch date: December 20, 2002
Source: Commonwealth of Independent States (former USSR) (CIS)
Launch site: TYURATAM MISSILE AND SPACE COMPLEX (TTMTR)

Note: This is SATELLITE DEBRIS
aabbcc
Your satellite tracking list
Your tracking list is empty




NASA's NSSDC Master Catalog

Two Line Element Set (TLE):
1 27611U 02058G   18020.62645399  .00001125  00000-0  84238-4 0  9995
2 27611  64.5405  92.6340 0035636 285.4415  74.2768 15.07883589820344
Source of the keplerian elements: AFSPC